Showing default

COSMOS 1912, 18791

Orbit data source: Space-Track

COSMOS 1912, 18791 is a payload satellite owned by UNKS (CIS) in LEO that was launched on Fri, 15 Jan 1988 UTC via a TSIKLON-3 launch vehicle from the Plesetsk Missile And Space Complex (PKMTR). Payload-class satellites include a variety of spacecraft equipped with specific instruments for various scientific and technological missions. These include communications satellites like Starlink; space stations such as the ISS; scientific satellites like the Hubble; Earth observation satellites from companies like Planet Labs, Umbra, and HawkEye 360; GPS; miniature CubeSats for education and research; and military/defense satellites.

Loading next visibility...
Identifier
18791, 1988-002D
Orbit
LEO
Country
Flag of CISCIS
Related business
Manufacturer
NPO PM
Mission
Defense Communications
Bus & Motor
STRELA-3, Unknown motor
Mass
225 kg wet, 225 kg dry
Launch date (UTC)
1988-01-15 (38 years ago)
Launch vehicle
TSIKLON-3
Launch site
Plesetsk Missile And Space Complex (PKMTR)
Object type
Payload
Rocket body
Debris
Shape & HBR
Cyl, 0.8 m
Radar Cross Section
1.257 m², Large (>1 m²)

Expand to show TLE details & history
Last TLE update: 22 hours ago

TLE from 22 hours ago
0 COSMOS 1912
1 18791U 88002D   25306.45335448  .00000016  00000-0  26697-4 0  9997
2 18791  82.6139  23.3471 0009523 255.5524 115.6251 12.65063695745228
Epoch: 2025-11-02T10:52Z
TLE epoch observation values (Epoch: 2025-11-02T10:52:49.827Z)
Latitude
11.13621°
Longitude
179.62561°
Altitude
1,407.309 km
Speed
7.156 km/s
True Right ascension
01h 39m 12s
True Declination
11° 04' 36"
Sunlit
Object was in full shadow at epoch
Visualization orbit readout
Latitude
Unknown
Longitude
Unknown
Altitude
Unknown
Speed
Unknown
Apparent Right ascension
Unknown
Apparent Declination
Unknown
Sunlit
N/A
Visualization observer readout
Local Sidereal Time
05:07:23
Azimuth
Unknown
Elevation
Unknown
Doppler factor
Unknown
Orbital elements
Apogee altitude
1,406.836 km
Perigee altitude
1,392.022 km
Semi-major axis
7,777.566 km
Eccentricity
0.00095
Inclination
82.6139°
RAAN
23.3471°
Arg. of periapsis
255.5524°
True anomaly
115.72344°
Mean anomaly
115.6251°
Eccentric anomaly
115.67428°
Mean motion
3.1643 °/min
Orbital period
113.77 mins
BSTAR
0.000026697
Loading maneuver chart data...
Computing Atmospheric mass density...
Loading historical data...
Loading historical data...
Loading historical data...
Loading historical data...
Loading historical data...
Loading historical data...
Loading historical data...

Documentation

Showing up to 5 results
|